Location: ???????
(55.4362°N, 38.1183°E)
Time: 16:49:47
(UTC+00:00)

Cosmos 2333 Rocket - Pass Details

Date: 25 October 2021
Orbit: 837 x 865 km, 70.8° (Epoch: 04 December)

Event Time Altitude Azimuth Distance (km) Brightness Sun altitude
Rises 16:28:46 0° 186° (S) 3,390 5.3 -21.0°
Reaches altitude 10° 16:31:19 10° 179° (S) 2,463 4.5 -21.4°
Enters shadow 16:35:02 34° 147° (SSE) 1,370 2.9 -21.9°
